Location: Cluj-Napoca
(46.7712°N, 23.6236°E)
Time: 05:45:13
(UTC+02:00)

ISS - Pass Details

Date: 21 January 2021
Orbit: 418 x 421 km, 51.6° (Epoch: 23 January)

Event Time Altitude Azimuth Distance (km) Brightness Sun altitude
Rises 18:53:31 0° 235° (SW) 2,361 1.3 -17.0°
Reaches altitude 10° 18:55:36 10° 233° (SW) 1,500 0.0 -17.4°
Maximum altitude 18:58:57 69° 150° (SSE) 454 -3.8 -17.9°
Enters shadow 18:59:26 58° 98° (E) 499 -3.8 -18.0°
